Список аэропортов
Фактическая погода:

21 января, 13:00
Температура: +8°C (+4.1*)
Ветер: южный 8 м/с
Давление: *757 мм
неб. облачность
кучево-дождевые 1140 м
Время (МСК)Темп. СВетерВлажностьДавлениеОблачностьОсадки
09:00+8Ю, 6 м/с74%1010 гПаоблачносл. дождь
10:00+9Ю, 6 м/с65%1009 гПас прояснениями
11:00+11Ю, 11 м/с60%1008 гПаоблачно
12:00+10Ю, 12 м/с65%1008 гПаоблачнодождь
13:00+11Ю, 13 м/с65%1008 гПас прояснениямисл. дождь
14:00+11ЮЗ, 13 м/с67%1009 гПаоблачно
15:00+10ЮЗ, 11 м/с68%1010 гПаоблачно
16:00+10ЮЗ, 9 м/с70%1012 гПаоблачно
17:00+9З, 6 м/с69%1014 гПаоблачно
18:00+8ЮЗ, 7 м/с69%1015 гПаоблачно
19:00+8З, 5 м/с73%1015 гПаоблачно
20:00+7З, 5 м/с74%1015 гПаоблачно
21:00+6СЗ, 4 м/с75%1015 гПаоблачно
22:00+6С, 4 м/с76%1015 гПаоблачно
23:00+5С, 4 м/с78%1015 гПас прояснениями
22 января
00:00+4СВ, 4 м/с81%1014 гПаоблачно
01:00+3СВ, 4 м/с80%1014 гПаоблачно
02:00+3В, 5 м/с79%1014 гПаоблачно
03:00+4В, 5 м/с79%1013 гПаоблачно
04:00+4В, 5 м/с80%1012 гПаоблачносл. дождь
05:00+4В, 5 м/с82%1011 гПаоблачносл. дождь
06:00+4В, 5 м/с84%1010 гПаоблачно
07:00+5В, 6 м/с86%1009 гПаоблачно
08:00+5В, 6 м/с86%1008 гПаоблачно
09:00+5В, 6 м/с84%1007 гПаоблачно
10:00+6В, 6 м/с78%1007 гПаоблачно
11:00+7В, 7 м/с75%1006 гПаоблачно
12:00+8В, 6 м/с72%1005 гПаоблачно
13:00+8В, 5 м/с71%1004 гПаоблачно
14:00+8В, 5 м/с70%1003 гПаоблачно
15:00+8В, 4 м/с68%1003 гПаоблачно
16:00+9В, 4 м/с67%1003 гПаоблачно
17:00+9В, 4 м/с67%1003 гПаоблачно
18:00+9В, 4 м/с67%1003 гПаоблачно
19:00+9В, 4 м/с67%1002 гПаоблачно
20:00+8В, 4 м/с68%1003 гПаоблачно
21:00+8В, 4 м/с69%1003 гПаоблачно
22:00+8В, 5 м/с67%1002 гПаоблачно
23:00+8В, 4 м/с68%1002 гПаоблачно
23 января
00:00+8В, 5 м/с69%1002 гПаоблачно
01:00+8В, 5 м/с69%1001 гПаоблачно
02:00+8В, 4 м/с69%1001 гПаоблачно
03:00+7В, 4 м/с71%1001 гПаоблачносл. дождь
04:00+7В, 4 м/с74%1001 гПаоблачносл. дождь
05:00+7В, 3 м/с75%1001 гПаоблачно
06:00+7В, 4 м/с75%1000 гПаоблачно
07:00+7В, 3 м/с75%1000 гПаоблачно
08:00+7В, 3 м/с76%1001 гПаоблачносл. дождь
09:00+7В, 3 м/с81%1001 гПаоблачнодождь